TimeEDT,TemperatureF,Dew PointF,Humidity,Sea Level PressureIn,VisibilityMPH,Wind Direction,Wind SpeedMPH,Gust SpeedMPH,PrecipitationIn,Events,Conditions,WindDirDegrees,DateUTC
12:53 AM,68.0,64.0,87,29.92,10.0,NNW,5.8,-,N/A,,Overcast,330,2013-08-14 04:53:00
1:53 AM,66.9,64.0,90,29.93,9.0,Calm,Calm,-,N/A,,Overcast,0,2013-08-14 05:53:00
2:53 AM,66.9,60.1,79,29.93,10.0,Variable,3.5,-,N/A,,Overcast,0,2013-08-14 06:53:00
3:53 AM,66.0,57.9,75,29.94,10.0,Variable,5.8,-,N/A,,Mostly Cloudy,0,2013-08-14 07:53:00
4:53 AM,64.0,57.0,78,29.95,10.0,North,6.9,-,N/A,,Overcast,360,2013-08-14 08:53:00
5:53 AM,62.1,57.0,84,29.96,10.0,North,5.8,-,N/A,,Mostly Cloudy,360,2013-08-14 09:53:00
6:53 AM,60.1,55.9,86,29.99,9.0,Calm,Calm,-,N/A,,Scattered Clouds,0,2013-08-14 10:53:00
7:53 AM,62.1,55.9,80,30.00,10.0,North,6.9,-,N/A,,Partly Cloudy,360,2013-08-14 11:53:00
8:53 AM,64.9,55.9,73,30.01,10.0,Variable,4.6,-,N/A,,Partly Cloudy,0,2013-08-14 12:53:00
9:53 AM,66.9,57.0,70,30.02,10.0,Variable,4.6,-,N/A,,Partly Cloudy,0,2013-08-14 13:53:00
10:53 AM,68.0,55.9,65,30.03,10.0,Variable,4.6,-,N/A,,Scattered Clouds,0,2013-08-14 14:53:00
11:53 AM,70.0,55.9,61,30.04,10.0,Variable,5.8,-,N/A,,Scattered Clouds,0,2013-08-14 15:53:00
12:53 PM,71.1,54.0,55,30.03,10.0,NW,8.1,-,N/A,,Scattered Clouds,320,2013-08-14 16:53:00
1:53 PM,73.0,54.0,51,30.02,10.0,NNW,8.1,-,N/A,,Scattered Clouds,340,2013-08-14 17:53:00
2:53 PM,73.9,53.1,48,30.01,10.0,NNW,10.4,-,N/A,,Scattered Clouds,340,2013-08-14 18:53:00
3:53 PM,73.9,50.0,43,30.01,10.0,Variable,3.5,-,N/A,,Scattered Clouds,0,2013-08-14 19:53:00
4:53 PM,73.0,51.1,46,30.01,10.0,North,6.9,-,N/A,,Mostly Cloudy,10,2013-08-14 20:53:00
5:53 PM,73.0,52.0,48,30.01,10.0,North,5.8,-,N/A,,Mostly Cloudy,10,2013-08-14 21:53:00
6:53 PM,72.0,52.0,49,30.01,10.0,North,8.1,-,N/A,,Mostly Cloudy,360,2013-08-14 22:53:00
7:53 PM,66.9,53.1,61,30.03,10.0,North,3.5,-,N/A,,Scattered Clouds,10,2013-08-14 23:53:00
8:53 PM,62.1,53.1,72,30.04,10.0,North,3.5,-,N/A,,Scattered Clouds,10,2013-08-15 00:53:00
9:53 PM,61.0,53.1,75,30.06,10.0,Calm,Calm,-,N/A,,Partly Cloudy,0,2013-08-15 01:53:00
10:53 PM,60.1,52.0,75,30.07,10.0,Calm,Calm,-,N/A,,Partly Cloudy,0,2013-08-15 02:53:00
11:53 PM,57.9,52.0,81,30.08,10.0,NNE,3.5,-,N/A,,Partly Cloudy,30,2013-08-15 03:53:00